| time (UTC) | temp F | wind direction | speed MPH | gust MPH | rain 1hr in | rain 24hr in | rain mn in | humidity % | barometer mb |
| 20260510134843 | 75 | 321 | 0.0 | 0.0 | 0.00 | 0.01 | 0.01 | 94 | 1015.2 |
| 20260510134340 | 74 | 260 | 0.0 | 0.0 | 0.00 | 0.01 | 0.01 | 94 | 1015.2 |
| 20260510133836 | 74 | 244 | 0.0 | 0.0 | 0.00 | 0.01 | 0.01 | 95 | 1015.0 |
| 20260510133332 | 74 | 282 | 0.0 | 0.0 | 0.00 | 0.01 | 0.01 | 96 | 1015.2 |
| 20260510132828 | 74 | 293 | 0.0 | 0.0 | 0.00 | 0.01 | 0.01 | 96 | 1015.2 |
| 20260510132326 | 73 | 294 | 0.0 | 0.0 | 0.00 | 0.01 | 0.01 | 96 | 1015.0 |
| 20260510131823 | 73 | 332 | 0.0 | 0.0 | 0.00 | 0.01 | 0.01 | 96 | 1015.1 |
| 20260510131320 | 73 | 290 | 0.0 | 0.0 | 0.00 | 0.01 | 0.01 | 96 | 1014.9 |
| 20260510130817 | 73 | 302 | 0.0 | 0.0 | 0.00 | 0.01 | 0.01 | 96 | 1014.9 |
| 20260510130314 | 73 | 278 | 0.0 | 0.0 | 0.00 | 0.01 | 0.01 | 97 | 1014.8 |
| 20260510125810 | 72 | 278 | 0.0 | 0.0 | 0.00 | 0.01 | 0.01 | 97 | 1014.9 |
| 20260510125307 | 72 | 277 | 0.0 | 0.0 | 0.00 | 0.01 | 0.01 | 97 | 1015.0 |
| 20260510124803 | 71 | 277 | 0.0 | 0.0 | 0.00 | 0.01 | 0.01 | 96 | 1014.8 |
| 20260510124300 | 71 | 277 | 0.0 | 0.0 | 0.00 | 0.01 | 0.01 | 97 | 1014.8 |
| 20260510123755 | 71 | 277 | 0.0 | 0.0 | 0.00 | 0.01 | 0.01 | 97 | 1014.7 |
| 20260510123251 | 70 | 277 | 0.0 | 0.0 | 0.00 | 0.01 | 0.01 | 97 | 1014.6 |
| 20260510122748 | 70 | 277 | 0.0 | 0.0 | 0.00 | 0.01 | 0.01 | 96 | 1014.5 |
| 20260510122244 | 70 | 277 | 0.0 | 0.0 | 0.00 | 0.01 | 0.01 | 97 | 1014.4 |
| 20260510121740 | 70 | 277 | 0.0 | 0.0 | 0.00 | 0.01 | 0.01 | 97 | 1014.6 |
| 20260510121238 | 69 | 277 | 0.0 | 0.0 | 0.00 | 0.01 | 0.01 | 97 | 1014.5 |
| 20260510120736 | 69 | 277 | 0.0 | 0.0 | 0.00 | 0.01 | 0.01 | 97 | 1014.3 |
| 20260510120232 | 69 | 277 | 0.0 | 0.0 | 0.00 | 0.01 | 0.01 | 97 | 1014.3 |
| 20260510115728 | 68 | 277 | 0.0 | 0.0 | 0.00 | 0.01 | 0.01 | 97 | 1014.2 |
| 20260510115226 | 69 | 277 | 0.0 | 0.0 | 0.00 | 0.01 | 0.01 | 97 | 1014.0 |
| 20260510114721 | 69 | 277 | 0.0 | 0.0 | 0.00 | 0.01 | 0.01 | 97 | 1013.8 |
| 20260510114218 | 68 | 277 | 0.0 | 0.0 | 0.00 | 0.01 | 0.01 | 97 | 1014.2 |
| 20260510113714 | 68 | 277 | 0.0 | 0.0 | 0.00 | 0.01 | 0.01 | 97 | 1013.9 |
| 20260510113210 | 68 | 277 | 0.0 | 0.0 | 0.00 | 0.01 | 0.01 | 97 | 1013.6 |
| 20260510112706 | 68 | 277 | 0.0 | 0.0 | 0.00 | 0.01 | 0.01 | 97 | 1013.8 |
| 20260510112204 | 67 | 277 | 0.0 | 0.0 | 0.00 | 0.01 | 0.01 | 97 | 1013.6 |
| 20260510111659 | 67 | 277 | 0.0 | 0.0 | 0.00 | 0.01 | 0.01 | 97 | 1013.5 |
| 20260510111156 | 67 | 277 | 0.0 | 0.0 | 0.00 | 0.01 | 0.01 | 97 | 1013.4 |
| 20260510110650 | 67 | 277 | 0.0 | 0.0 | 0.00 | 0.01 | 0.01 | 97 | 1013.3 |
| 20260510110149 | 67 | 277 | 0.0 | 0.0 | 0.00 | 0.01 | 0.01 | 97 | 1013.5 |
| 20260510105644 | 67 | 277 | 0.0 | 0.0 | 0.00 | 0.01 | 0.01 | 97 | 1013.3 |
| 20260510105144 | 67 | 277 | 0.0 | 0.0 | 0.00 | 0.01 | 0.01 | 97 | 1013.5 |
| 20260510104641 | 67 | 277 | 0.0 | 0.0 | 0.00 | 0.01 | 0.01 | 97 | 1013.3 |
| 20260510104137 | 67 | 277 | 0.0 | 0.0 | 0.00 | 0.01 | 0.01 | 97 | 1013.1 |
| 20260510103634 | 67 | 277 | 0.0 | 0.0 | 0.00 | 0.01 | 0.01 | 97 | 1013.1 |
| 20260510103131 | 67 | 277 | 0.0 | 0.0 | 0.00 | 0.01 | 0.01 | 97 | 1013.2 |
| 20260510102626 | 67 | 277 | 0.0 | 0.0 | 0.00 | 0.01 | 0.01 | 97 | 1013.0 |
| 20260510102122 | 67 | 277 | 0.0 | 0.0 | 0.00 | 0.01 | 0.01 | 96 | 1012.8 |
| 20260510101620 | 67 | 277 | 0.0 | 0.0 | 0.00 | 0.01 | 0.01 | 96 | 1012.7 |
| 20260510101118 | 68 | 277 | 0.0 | 0.0 | 0.00 | 0.01 | 0.01 | 97 | 1012.8 |
| 20260510100614 | 68 | 277 | 0.0 | 0.0 | 0.00 | 0.01 | 0.01 | 96 | 1012.8 |
| 20260510100111 | 68 | 277 | 0.0 | 0.0 | 0.00 | 0.01 | 0.01 | 96 | 1012.6 |
| 20260510095607 | 67 | 276 | 0.0 | 0.0 | 0.00 | 0.01 | 0.01 | 97 | 1012.4 |
| 20260510095102 | 67 | 276 | 0.0 | 0.0 | 0.00 | 0.01 | 0.01 | 97 | 1012.5 |
| 20260510094601 | 67 | 276 | 0.0 | 0.0 | 0.00 | 0.01 | 0.01 | 97 | 1012.5 |
| 20260510094057 | 67 | 276 | 0.0 | 0.0 | 0.00 | 0.01 | 0.01 | 96 | 1012.5 |
| 20260510093553 | 67 | 276 | 0.0 | 0.0 | 0.00 | 0.01 | 0.01 | 96 | 1012.5 |
| 20260510093050 | 67 | 276 | 0.0 | 0.0 | 0.00 | 0.01 | 0.01 | 96 | 1012.6 |
| 20260510092547 | 67 | 276 | 0.0 | 0.0 | 0.00 | 0.01 | 0.01 | 97 | 1012.4 |
| 20260510092046 | 67 | 276 | 0.0 | 0.0 | 0.00 | 0.01 | 0.01 | 97 | 1012.2 |
| 20260510091544 | 67 | 276 | 0.0 | 0.0 | 0.00 | 0.01 | 0.01 | 96 | 1012.2 |
| 20260510091040 | 67 | 276 | 0.0 | 0.0 | 0.00 | 0.01 | 0.01 | 97 | 1012.4 |
| 20260510090537 | 67 | 276 | 0.0 | 0.0 | 0.00 | 0.01 | 0.01 | 96 | 1012.1 |
| 20260510090032 | 67 | 276 | 0.0 | 0.0 | 0.00 | 0.01 | 0.01 | 97 | 1012.1 |
| 20260510085527 | 67 | 276 | 0.0 | 0.0 | 0.00 | 0.01 | 0.01 | 96 | 1012.1 |
| 20260510085023 | 67 | 276 | 0.0 | 0.0 | 0.00 | 0.01 | 0.01 | 96 | 1012.1 |
| 20260510084520 | 67 | 276 | 0.0 | 0.0 | 0.00 | 0.01 | 0.01 | 96 | 1011.9 |
| 20260510084017 | 67 | 276 | 0.0 | 0.0 | 0.00 | 0.01 | 0.01 | 96 | 1011.9 |
| 20260510083513 | 67 | 276 | 0.0 | 0.0 | 0.00 | 0.01 | 0.01 | 96 | 1011.9 |
| 20260510083009 | 67 | 276 | 0.0 | 0.0 | 0.00 | 0.01 | 0.01 | 96 | 1011.7 |
| 20260510082507 | 67 | 276 | 0.0 | 0.0 | 0.00 | 0.01 | 0.01 | 96 | 1011.8 |
| 20260510082006 | 68 | 276 | 0.0 | 0.0 | 0.00 | 0.01 | 0.01 | 96 | 1012.0 |
| 20260510081502 | 68 | 276 | 0.0 | 0.0 | 0.00 | 0.01 | 0.01 | 96 | 1011.7 |
| 20260510080958 | 68 | 276 | 0.0 | 0.0 | 0.00 | 0.01 | 0.01 | 96 | 1011.8 |
| 20260510080456 | 68 | 276 | 0.0 | 0.0 | 0.00 | 0.01 | 0.01 | 96 | 1011.7 |
| 20260510075954 | 68 | 276 | 0.0 | 0.0 | 0.00 | 0.01 | 0.01 | 96 | 1011.7 |
| 20260510075451 | 68 | 276 | 0.0 | 0.0 | 0.00 | 0.01 | 0.01 | 96 | 1011.8 |
| 20260510074948 | 68 | 276 | 0.0 | 0.0 | 0.00 | 0.01 | 0.01 | 96 | 1011.6 |
| 20260510074445 | 68 | 276 | 0.0 | 0.0 | 0.00 | 0.01 | 0.01 | 96 | 1011.9 |
| 20260510073941 | 68 | 276 | 0.0 | 0.0 | 0.00 | 0.01 | 0.01 | 96 | 1011.7 |
| 20260510073437 | 68 | 276 | 0.0 | 0.0 | 0.00 | 0.01 | 0.01 | 96 | 1011.8 |
| 20260510072934 | 68 | 276 | 0.0 | 0.0 | 0.00 | 0.01 | 0.01 | 96 | 1011.8 |
| 20260510072431 | 68 | 276 | 0.0 | 0.0 | 0.00 | 0.01 | 0.01 | 96 | 1011.9 |
| 20260510071927 | 68 | 276 | 0.0 | 0.0 | 0.00 | 0.01 | 0.01 | 96 | 1011.7 |
| 20260510071423 | 68 | 276 | 0.0 | 0.0 | 0.00 | 0.01 | 0.01 | 96 | 1011.9 |
| 20260510070922 | 68 | 276 | 0.0 | 0.0 | 0.00 | 0.01 | 0.01 | 96 | 1011.7 |
| 20260510070419 | 68 | 276 | 0.0 | 0.0 | 0.00 | 0.01 | 0.01 | 96 | 1011.8 |
| 20260510065914 | 68 | 275 | 0.0 | 0.0 | 0.00 | 0.01 | 0.01 | 96 | 1011.8 |
| 20260510065410 | 69 | 275 | 0.0 | 0.0 | 0.00 | 0.01 | 0.01 | 96 | 1011.7 |
| 20260510064907 | 69 | 276 | 0.0 | 0.0 | 0.00 | 0.01 | 0.01 | 96 | 1011.9 |
| 20260510064405 | 69 | 275 | 0.0 | 0.0 | 0.00 | 0.01 | 0.01 | 96 | 1011.9 |
| 20260510063901 | 69 | 275 | 0.0 | 0.0 | 0.00 | 0.01 | 0.01 | 96 | 1012.0 |
| 20260510063357 | 69 | 275 | 0.0 | 0.0 | 0.00 | 0.01 | 0.01 | 96 | 1011.9 |
| 20260510062855 | 69 | 269 | 0.0 | 0.0 | 0.00 | 0.01 | 0.01 | 96 | 1011.9 |
| 20260510062349 | 68 | 269 | 0.0 | 0.0 | 0.00 | 0.01 | 0.01 | 96 | 1011.9 |
| 20260510061845 | 68 | 269 | 0.0 | 0.0 | 0.00 | 0.01 | 0.01 | 96 | 1012.0 |
| 20260510061343 | 68 | 269 | 0.0 | 0.0 | 0.00 | 0.01 | 0.01 | 96 | 1012.0 |
| 20260510060838 | 69 | 269 | 0.0 | 0.0 | 0.00 | 0.01 | 0.01 | 96 | 1012.2 |
| 20260510060335 | 69 | 284 | 0.0 | 0.0 | 0.00 | 0.01 | 0.01 | 96 | 1012.3 |
| 20260510055832 | 69 | 284 | 0.0 | 0.0 | 0.00 | 0.01 | 0.01 | 96 | 1012.2 |
| 20260510055330 | 69 | 285 | 0.0 | 0.0 | 0.00 | 0.01 | 0.01 | 96 | 1012.2 |
| 20260510054825 | 69 | 284 | 0.0 | 0.0 | 0.00 | 0.01 | 0.01 | 96 | 1012.4 |
| 20260510054321 | 69 | 285 | 0.0 | 0.0 | 0.00 | 0.01 | 0.01 | 96 | 1012.4 |
| 20260510053816 | 69 | 268 | 0.0 | 0.0 | 0.00 | 0.01 | 0.01 | 96 | 1012.6 |
| 20260510053312 | 69 | 268 | 0.0 | 0.0 | 0.00 | 0.01 | 0.01 | 96 | 1012.5 |
| 20260510052808 | 69 | 267 | 0.0 | 0.0 | 0.00 | 0.01 | 0.01 | 96 | 1012.5 |
| 20260510052306 | 69 | 262 | 0.0 | 0.0 | 0.00 | 0.01 | 0.01 | 96 | 1012.5 |
| 20260510051800 | 69 | 290 | 0.0 | 0.0 | 0.00 | 0.01 | 0.01 | 96 | 1012.5 |
| 20260510051257 | 68 | 290 | 0.0 | 0.0 | 0.00 | 0.01 | 0.01 | 96 | 1012.7 |
| 20260510050754 | 68 | 290 | 0.0 | 0.0 | 0.00 | 0.01 | 0.01 | 96 | 1012.7 |
| 20260510050251 | 68 | 290 | 0.0 | 0.0 | 0.00 | 0.01 | 0.01 | 96 | 1012.8 |
| 20260510045748 | 68 | 290 | 0.0 | 0.0 | 0.00 | 0.01 | 0.01 | 96 | 1013.0 |
| 20260510045244 | 68 | 290 | 0.0 | 0.0 | 0.00 | 0.01 | 0.01 | 96 | 1013.0 |
| 20260510044742 | 68 | 291 | 0.0 | 0.0 | 0.00 | 0.01 | 0.01 | 96 | 1013.1 |
| 20260510044239 | 68 | 291 | 0.0 | 0.0 | 0.00 | 0.01 | 0.01 | 96 | 1013.2 |
| 20260510043734 | 68 | 291 | 0.0 | 0.0 | 0.00 | 0.01 | 0.01 | 96 | 1013.4 |
| 20260510043231 | 68 | 291 | 0.0 | 0.0 | 0.05 | 0.01 | 0.01 | 96 | 1013.5 |
| 20260510042729 | 68 | 290 | 0.0 | 0.0 | 0.05 | 0.01 | 0.01 | 96 | 1013.5 |
| 20260510042224 | 68 | 291 | 0.0 | 0.0 | 0.00 | 0.00 | 0.00 | 96 | 1013.5 |
| 20260510041721 | 68 | 291 | 0.0 | 0.0 | 0.00 | 0.00 | 0.00 | 96 | 1013.6 |
| 20260510041218 | 68 | 291 | 0.0 | 0.0 | 0.00 | 0.00 | 0.00 | 96 | 1013.6 |
| 20260510040715 | 68 | 291 | 0.0 | 0.0 | 0.00 | 0.00 | 0.00 | 96 | 1013.5 |
| 20260510040212 | 68 | 290 | 0.0 | 0.0 | 0.00 | 0.00 | 0.00 | 95 | 1013.7 |
| 20260510035707 | 68 | 291 | 0.0 | 0.0 | 0.00 | 0.83 | 0.83 | 95 | 1013.8 |
| 20260510035204 | 68 | 291 | 0.0 | 0.0 | 0.00 | 0.83 | 0.83 | 96 | 1013.7 |
| 20260510034700 | 68 | 291 | 0.0 | 0.0 | 0.00 | 0.83 | 0.83 | 96 | 1013.8 |
| 20260510034157 | 68 | 291 | 0.0 | 0.0 | 0.00 | 0.83 | 0.83 | 95 | 1013.6 |
| 20260510033653 | 68 | 291 | 0.0 | 0.0 | 0.00 | 0.83 | 0.83 | 95 | 1013.7 |
| 20260510033151 | 68 | 291 | 0.0 | 0.0 | 0.00 | 0.83 | 0.83 | 95 | 1013.5 |
| 20260510032647 | 68 | 291 | 0.0 | 0.0 | 0.00 | 0.83 | 0.83 | 95 | 1013.5 |
| 20260510032143 | 68 | 291 | 0.0 | 0.0 | 0.00 | 0.83 | 0.83 | 95 | 1013.6 |
| 20260510031637 | 68 | 291 | 0.0 | 0.0 | 0.00 | 0.83 | 0.83 | 95 | 1013.5 |
| 20260510031135 | 68 | 291 | 0.0 | 0.0 | 0.00 | 0.83 | 0.83 | 95 | 1013.7 |
| 20260510030629 | 68 | 291 | 0.0 | 0.0 | 0.00 | 0.83 | 0.83 | 95 | 1013.6 |
| 20260510030127 | 68 | 291 | 0.0 | 0.0 | 0.00 | 0.83 | 0.83 | 95 | 1013.6 |
| 20260510025624 | 68 | 291 | 0.0 | 0.0 | 0.00 | 0.83 | 0.83 | 95 | 1013.5 |
| 20260510025121 | 69 | 291 | 0.0 | 0.0 | 0.00 | 0.83 | 0.83 | 95 | 1013.5 |
| 20260510024618 | 69 | 291 | 0.0 | 0.0 | 0.00 | 0.83 | 0.83 | 95 | 1013.5 |
| 20260510024114 | 69 | 291 | 0.0 | 0.0 | 0.00 | 0.83 | 0.83 | 95 | 1013.5 |
| 20260510023610 | 69 | 292 | 0.0 | 0.0 | 0.00 | 0.83 | 0.83 | 95 | 1013.5 |
| 20260510023108 | 69 | 292 | 0.0 | 0.0 | 0.00 | 0.83 | 0.83 | 95 | 1013.4 |
| 20260510022608 | 69 | 292 | 0.0 | 0.0 | 0.00 | 0.83 | 0.83 | 95 | 1013.5 |
| 20260510022102 | 69 | 292 | 0.0 | 0.0 | 0.00 | 0.83 | 0.83 | 95 | 1013.2 |
| 20260510021559 | 69 | 292 | 0.0 | 0.0 | 0.00 | 0.83 | 0.83 | 95 | 1013.0 |
| 20260510021056 | 69 | 294 | 0.0 | 0.0 | 0.00 | 0.83 | 0.83 | 95 | 1013.0 |
| 20260510020550 | 69 | 293 | 0.0 | 0.0 | 0.00 | 0.83 | 0.83 | 95 | 1013.2 |
| 20260510020046 | 69 | 293 | 0.0 | 0.0 | 0.00 | 0.83 | 0.83 | 95 | 1013.0 |
| 20260510015542 | 69 | 290 | 0.0 | 0.0 | 0.00 | 0.83 | 0.83 | 95 | 1012.9 |
| 20260510015038 | 69 | 264 | 0.0 | 0.0 | 0.00 | 0.83 | 0.83 | 95 | 1012.9 |
| 20260510014535 | 69 | 294 | 0.0 | 0.0 | 0.00 | 0.83 | 0.83 | 95 | 1012.5 |
| 20260510014032 | 69 | 299 | 0.0 | 0.0 | 0.00 | 0.83 | 0.83 | 95 | 1012.3 |
| 20260510013526 | 69 | 293 | 0.0 | 0.0 | 0.00 | 0.83 | 0.83 | 95 | 1012.7 |
| 20260510013022 | 69 | 293 | 0.0 | 0.0 | 0.00 | 0.83 | 0.83 | 95 | 1012.4 |
| 20260510012522 | 69 | 293 | 0.0 | 0.0 | 0.00 | 0.83 | 0.83 | 94 | 1012.3 |
| 20260510012018 | 69 | 293 | 0.0 | 0.0 | 0.00 | 0.83 | 0.83 | 94 | 1012.2 |
| 20260510011518 | 69 | 293 | 0.0 | 0.0 | 0.00 | 0.83 | 0.83 | 94 | 1012.2 |
| 20260510011013 | 69 | 294 | 0.0 | 0.0 | 0.00 | 0.83 | 0.83 | 94 | 1012.1 |
| 20260510010511 | 69 | 293 | 0.0 | 0.0 | 0.00 | 0.83 | 0.83 | 94 | 1012.4 |
| 20260510010008 | 69 | 293 | 0.0 | 0.0 | 0.00 | 0.83 | 0.83 | 94 | 1012.3 |
| 20260510005503 | 69 | 293 | 0.0 | 0.0 | 0.00 | 0.83 | 0.83 | 94 | 1012.3 |
| 20260510005001 | 69 | 293 | 0.0 | 0.0 | 0.00 | 0.83 | 0.83 | 94 | 1012.1 |
| 20260510004458 | 69 | 293 | 0.0 | 0.0 | 0.00 | 0.83 | 0.83 | 94 | 1011.9 |
| 20260510003957 | 69 | 293 | 0.0 | 0.0 | 0.00 | 0.83 | 0.83 | 94 | 1011.8 |
| 20260510003453 | 69 | 294 | 0.0 | 0.0 | 0.00 | 0.83 | 0.83 | 94 | 1011.7 |
| 20260510002948 | 69 | 293 | 0.0 | 0.0 | 0.00 | 0.83 | 0.83 | 94 | 1011.8 |
| 20260510002444 | 69 | 293 | 0.0 | 0.0 | 0.00 | 0.83 | 0.83 | 94 | 1011.7 |
| 20260510001941 | 69 | 291 | 0.0 | 0.0 | 0.00 | 0.83 | 0.83 | 94 | 1012.1 |
| 20260510001438 | 69 | 288 | 0.0 | 0.0 | 0.00 | 0.83 | 0.83 | 94 | 1012.0 |
| 20260510000936 | 69 | 307 | 0.0 | 0.0 | 0.00 | 0.83 | 0.83 | 94 | 1011.9 |
| 20260510000433 | 69 | 296 | 0.0 | 0.0 | 0.00 | 0.83 | 0.83 | 94 | 1012.0 |
| 20260509235928 | 69 | 274 | 0.0 | 0.0 | 0.00 | 0.83 | 0.83 | 93 | 1011.7 |
| 20260509235426 | 69 | 274 | 0.0 | 0.0 | 0.00 | 0.83 | 0.83 | 94 | 1012.1 |
| 20260509234921 | 69 | 297 | 0.0 | 0.0 | 0.00 | 0.83 | 0.83 | 93 | 1012.0 |
| 20260509234419 | 69 | 305 | 0.0 | 0.0 | 0.00 | 0.83 | 0.83 | 93 | 1011.8 |
| 20260509233917 | 69 | 310 | 0.0 | 0.0 | 0.00 | 0.83 | 0.83 | 93 | 1011.8 |
| 20260509233414 | 70 | 296 | 0.0 | 0.0 | 0.00 | 0.83 | 0.83 | 93 | 1011.8 |
| 20260509232910 | 70 | 313 | 0.0 | 1.0 | 0.26 | 0.83 | 0.83 | 93 | 1011.9 |
| 20260509232408 | 70 | 307 | 0.0 | 0.0 | 0.31 | 0.83 | 0.83 | 93 | 1011.9 |
| 20260509231903 | 70 | 312 | 0.0 | 0.0 | 0.12 | 0.79 | 0.79 | 93 | 1012.2 |
| 20260509231400 | 70 | 294 | 0.0 | 0.0 | 0.12 | 0.78 | 0.78 | 93 | 1012.4 |
| 20260509230859 | 70 | 314 | 0.0 | 0.0 | 0.17 | 0.77 | 0.77 | 93 | 1012.3 |
| 20260509230355 | 70 | 298 | 0.0 | 0.0 | 0.19 | 0.76 | 0.76 | 93 | 1012.5 |
| 20260509225851 | 70 | 300 | 0.0 | 0.0 | 0.17 | 0.75 | 0.75 | 93 | 1012.7 |
| 20260509225348 | 70 | 290 | 0.0 | 0.0 | 0.24 | 0.73 | 0.73 | 92 | 1012.5 |
| 20260509224843 | 70 | 298 | 0.0 | 0.0 | 0.38 | 0.72 | 0.72 | 92 | 1012.6 |
| 20260509224339 | 70 | 292 | 0.0 | 0.0 | 0.31 | 0.70 | 0.70 | 92 | 1012.7 |
| 20260509223837 | 71 | 308 | 1.0 | 1.0 | 0.17 | 0.66 | 0.66 | 92 | 1012.8 |
| 20260509223333 | 71 | 302 | 0.0 | 0.0 | 0.12 | 0.65 | 0.65 | 92 | 1012.9 |
| 20260509222830 | 71 | 290 | 0.0 | 1.0 | 0.00 | 0.63 | 0.63 | 91 | 1012.8 |
| 20260509222325 | 71 | 285 | 1.0 | 1.0 | 0.00 | 0.63 | 0.63 | 91 | 1012.7 |
| 20260509221821 | 71 | 297 | 1.0 | 2.0 | 0.07 | 0.63 | 0.63 | 91 | 1012.5 |
| 20260509221319 | 71 | 291 | 1.0 | 1.0 | 0.07 | 0.63 | 0.63 | 91 | 1012.6 |
| 20260509220814 | 71 | 296 | 2.0 | 3.0 | 0.12 | 0.63 | 0.63 | 90 | 1012.2 |
| 20260509220310 | 71 | 308 | 1.0 | 1.0 | 0.12 | 0.62 | 0.62 | 89 | 1012.2 |
| 20260509215806 | 72 | 326 | 2.0 | 2.0 | 0.07 | 0.61 | 0.61 | 89 | 1012.3 |
| 20260509215305 | 72 | 297 | 0.0 | 1.0 | 0.00 | 0.60 | 0.60 | 89 | 1012.3 |
| 20260509214800 | 72 | 296 | 2.0 | 2.0 | 0.00 | 0.60 | 0.60 | 88 | 1012.1 |
| 20260509214257 | 72 | 302 | 0.0 | 0.0 | 0.00 | 0.60 | 0.60 | 89 | 1012.3 |
| 20260509213754 | 72 | 292 | 1.0 | 1.0 | 0.00 | 0.60 | 0.60 | 89 | 1012.0 |
| 20260509213249 | 72 | 280 | 0.0 | 0.0 | 0.00 | 0.60 | 0.60 | 89 | 1012.0 |
| 20260509212747 | 72 | 312 | 4.0 | 6.0 | 0.00 | 0.60 | 0.60 | 89 | 1011.8 |
| 20260509212244 | 72 | 311 | 1.0 | 1.0 | 0.00 | 0.60 | 0.60 | 90 | 1011.8 |
| 20260509211745 | 72 | 303 | 0.0 | 0.0 | 0.00 | 0.60 | 0.60 | 90 | 1011.9 |
| 20260509211241 | 72 | 284 | 2.0 | 2.0 | 0.00 | 0.60 | 0.60 | 90 | 1011.6 |
| 20260509210738 | 71 | 287 | 0.0 | 0.0 | 0.00 | 0.60 | 0.60 | 91 | 1011.7 |
| 20260509210236 | 71 | 311 | 0.0 | 1.0 | 0.00 | 0.60 | 0.60 | 91 | 1011.7 |
| 20260509205735 | 72 | 320 | 0.0 | 0.0 | 0.00 | 0.60 | 0.60 | 91 | 1011.7 |
| 20260509205236 | 72 | 304 | 0.0 | 0.0 | 0.00 | 0.60 | 0.60 | 91 | 1011.9 |
| 20260509204732 | 72 | 267 | 0.0 | 0.0 | 0.05 | 0.60 | 0.60 | 91 | 1011.7 |
| 20260509204228 | 72 | 302 | 0.0 | 0.0 | 0.05 | 0.60 | 0.60 | 90 | 1011.5 |
| 20260509203724 | 72 | 268 | 3.0 | 3.0 | 0.00 | 0.59 | 0.59 | 90 | 1011.7 |
| 20260509203223 | 72 | 352 | 1.0 | 2.0 | 0.00 | 0.59 | 0.59 | 90 | 1011.7 |
| 20260509202718 | 72 | 294 | 1.0 | 1.0 | 0.00 | 0.59 | 0.59 | 90 | 1011.5 |
| 20260509202214 | 72 | 349 | 2.0 | 2.0 | 0.00 | 0.59 | 0.59 | 89 | 1011.5 |
| 20260509201709 | 73 | 317 | 2.0 | 3.0 | 0.00 | 0.59 | 0.59 | 89 | 1011.2 |
| 20260509201206 | 74 | 297 | 3.0 | 5.0 | 0.00 | 0.59 | 0.59 | 88 | 1011.6 |
| 20260509200702 | 75 | 316 | 6.0 | 8.0 | 0.00 | 0.59 | 0.59 | 91 | 1011.6 |
| 20260509200157 | 75 | 294 | 2.0 | 2.0 | 0.00 | 0.59 | 0.59 | 91 | 1011.6 |
| 20260509195653 | 76 | 307 | 1.0 | 1.0 | 0.00 | 0.59 | 0.59 | 91 | 1011.3 |
| 20260509195149 | 76 | 326 | 3.0 | 5.0 | 0.00 | 0.59 | 0.59 | 92 | 1011.6 |
| 20260509194648 | 76 | 307 | 1.0 | 1.0 | 0.00 | 0.59 | 0.59 | 92 | 1011.5 |
| 20260509194146 | 76 | 295 | 2.0 | 2.0 | 0.00 | 0.59 | 0.59 | 92 | 1011.4 |
| 20260509193641 | 76 | 303 | 0.0 | 1.0 | 0.00 | 0.59 | 0.59 | 93 | 1011.6 |
| 20260509193137 | 76 | 316 | 0.0 | 0.0 | 0.00 | 0.59 | 0.59 | 93 | 1011.3 |
| 20260509192634 | 75 | 296 | 0.0 | 0.0 | 0.00 | 0.59 | 0.59 | 93 | 1011.4 |
| 20260509192130 | 75 | 298 | 2.0 | 2.0 | 0.00 | 0.59 | 0.59 | 93 | 1011.6 |
| 20260509191629 | 74 | 293 | 2.0 | 3.0 | 0.00 | 0.59 | 0.59 | 93 | 1011.8 |
| 20260509191126 | 74 | 275 | 1.0 | 2.0 | 0.07 | 0.59 | 0.59 | 93 | 1011.7 |
| 20260509190623 | 74 | 333 | 1.0 | 1.0 | 0.61 | 0.59 | 0.59 | 92 | 1011.8 |
| 20260509190120 | 75 | 356 | 1.0 | 1.0 | 1.02 | 0.58 | 0.58 | 92 | 1011.9 |
| 20260509185618 | 75 | 270 | 0.0 | 0.0 | 0.78 | 0.50 | 0.50 | 92 | 1012.0 |
| 20260509185113 | 75 | 257 | 0.0 | 0.0 | 0.42 | 0.43 | 0.43 | 92 | 1012.2 |
| 20260509184612 | 75 | 294 | 0.0 | 0.0 | 0.07 | 0.37 | 0.37 | 91 | 1012.2 |
| 20260509184108 | 75 | 296 | 0.0 | 0.0 | 0.00 | 0.36 | 0.36 | 91 | 1012.0 |
| 20260509183603 | 75 | 296 | 0.0 | 0.0 | 0.00 | 0.36 | 0.36 | 90 | 1011.9 |
| 20260509183059 | 75 | 288 | 0.0 | 0.0 | 0.00 | 0.36 | 0.36 | 90 | 1012.0 |
| 20260509182556 | 74 | 287 | 1.0 | 1.0 | 0.00 | 0.36 | 0.36 | 90 | 1011.9 |
| 20260509182053 | 74 | 286 | 0.0 | 0.0 | 0.00 | 0.36 | 0.36 | 90 | 1012.1 |
| 20260509181551 | 74 | 286 | 1.0 | 1.0 | 0.35 | 0.36 | 0.36 | 90 | 1011.9 |
| 20260509181048 | 74 | 308 | 0.0 | 0.0 | 0.71 | 0.36 | 0.36 | 90 | 1012.1 |
| 20260509180543 | 75 | 305 | 1.0 | 2.0 | 0.42 | 0.31 | 0.31 | 90 | 1012.1 |
| 20260509180042 | 76 | 306 | 2.0 | 2.0 | 0.00 | 0.24 | 0.24 | 91 | 1012.4 |
| 20260509175537 | 76 | 295 | 0.0 | 0.0 | 0.19 | 0.24 | 0.24 | 91 | 1011.9 |
| 20260509175034 | 76 | 340 | 1.0 | 1.0 | 0.19 | 0.24 | 0.24 | 90 | 1012.0 |
| 20260509174530 | 76 | 307 | 0.0 | 0.0 | 0.31 | 0.21 | 0.21 | 89 | 1012.0 |
| 20260509174026 | 77 | 314 | 0.0 | 0.0 | 1.09 | 0.21 | 0.21 | 88 | 1012.0 |
| 20260509173520 | 77 | 296 | 1.0 | 2.0 | 1.06 | 0.18 | 0.18 | 84 | 1012.1 |
| 20260509173017 | 80 | 304 | 2.0 | 2.0 | 0.24 | 0.04 | 0.04 | 77 | 1011.9 |
| 20260509172514 | 83 | 256 | 1.0 | 1.0 | 0.00 | 0.00 | 0.00 | 71 | 1012.1 |
| 20260509172009 | 84 | 354 | 0.0 | 1.0 | 0.00 | 0.00 | 0.00 | 68 | 1011.9 |
| 20260509171506 | 83 | 303 | 0.0 | 1.0 | 0.00 | 0.00 | 0.00 | 69 | 1011.9 |
| 20260509171002 | 83 | 225 | 0.0 | 0.0 | 0.00 | 0.00 | 0.00 | 69 | 1012.3 |
| 20260509170458 | 83 | 242 | 1.0 | 1.0 | 0.00 | 0.00 | 0.00 | 69 | 1012.1 |
| 20260509165953 | 83 | 244 | 0.0 | 0.0 | 0.00 | 0.00 | 0.00 | 70 | 1012.3 |
| 20260509165453 | 83 | 128 | 2.0 | 2.0 | 0.00 | 0.00 | 0.00 | 69 | 1012.2 |
| 20260509164949 | 83 | 202 | 3.0 | 3.0 | 0.00 | 0.00 | 0.00 | 69 | 1012.3 |
| 20260509164444 | 83 | 185 | 3.0 | 3.0 | 0.00 | 0.00 | 0.00 | 70 | 1012.3 |
| 20260509163941 | 83 | 238 | 2.0 | 2.0 | 0.00 | 0.00 | 0.00 | 69 | 1012.3 |
| 20260509163438 | 83 | 268 | 1.0 | 2.0 | 0.00 | 0.00 | 0.00 | 69 | 1012.3 |
| 20260509162937 | 83 | 293 | 1.0 | 2.0 | 0.00 | 0.00 | 0.00 | 68 | 1012.2 |
| 20260509162436 | 82 | 239 | 1.0 | 1.0 | 0.00 | 0.00 | 0.00 | 69 | 1012.4 |
| 20260509161932 | 82 | 262 | 1.0 | 2.0 | 0.00 | 0.00 | 0.00 | 70 | 1012.3 |
| 20260509161428 | 84 | 268 | 2.0 | 3.0 | 0.00 | 0.00 | 0.00 | 69 | 1012.4 |
| 20260509160924 | 84 | 174 | 3.0 | 3.0 | 0.00 | 0.00 | 0.00 | 68 | 1012.4 |
| 20260509160420 | 83 | 280 | 1.0 | 1.0 | 0.00 | 0.00 | 0.00 | 69 | 1012.4 |
| 20260509155915 | 81 | 260 | 0.0 | 0.0 | 0.00 | 0.00 | 0.00 | 72 | 1012.5 |
| 20260509155412 | 82 | 306 | 2.0 | 2.0 | 0.00 | 0.00 | 0.00 | 71 | 1012.4 |
| 20260509154908 | 81 | 278 | 0.0 | 1.0 | 0.00 | 0.00 | 0.00 | 73 | 1012.4 |
| 20260509154405 | 81 | 275 | 1.0 | 1.0 | 0.00 | 0.00 | 0.00 | 73 | 1012.2 |
| 20260509153901 | 80 | 291 | 1.0 | 1.0 | 0.00 | 0.00 | 0.00 | 73 | 1012.0 |
| 20260509153359 | 79 | 255 | 0.0 | 0.0 | 0.00 | 0.00 | 0.00 | 75 | 1011.9 |
| 20260509152856 | 80 | 279 | 0.0 | 1.0 | 0.00 | 0.00 | 0.00 | 74 | 1012.1 |
| 20260509152352 | 79 | 297 | 1.0 | 1.0 | 0.00 | 0.00 | 0.00 | 76 | 1012.0 |
| 20260509151849 | 80 | 99 | 1.0 | 1.0 | 0.00 | 0.00 | 0.00 | 75 | 1012.1 |
| 20260509151345 | 80 | 262 | 1.0 | 3.0 | 0.00 | 0.00 | 0.00 | 74 | 1012.2 |
| 20260509150844 | 79 | 296 | 0.0 | 0.0 | 0.00 | 0.00 | 0.00 | 76 | 1012.2 |
| 20260509150341 | 78 | 185 | 2.0 | 2.0 | 0.00 | 0.00 | 0.00 | 77 | 1012.4 |
| 20260509145838 | 77 | 269 | 1.0 | 1.0 | 0.00 | 0.00 | 0.00 | 80 | 1012.4 |
| 20260509145332 | 77 | 248 | 1.0 | 1.0 | 0.00 | 0.00 | 0.00 | 80 | 1012.2 |
| 20260509144830 | 77 | 246 | 1.0 | 2.0 | 0.00 | 0.00 | 0.00 | 79 | 1012.2 |
| 20260509144326 | 78 | 266 | 0.0 | 0.0 | 0.00 | 0.00 | 0.00 | 78 | 1012.4 |
| 20260509143823 | 77 | 276 | 0.0 | 0.0 | 0.00 | 0.00 | 0.00 | 79 | 1012.2 |
| 20260509143321 | 77 | 275 | 0.0 | 0.0 | 0.00 | 0.00 | 0.00 | 80 | 1012.5 |
| 20260509142817 | 76 | 283 | 0.0 | 0.0 | 0.00 | 0.00 | 0.00 | 81 | 1012.6 |
| 20260509142313 | 75 | 263 | 2.0 | 2.0 | 0.00 | 0.00 | 0.00 | 82 | 1012.5 |
| 20260509141809 | 75 | 277 | 0.0 | 0.0 | 0.00 | 0.00 | 0.00 | 82 | 1012.8 |
| 20260509141306 | 75 | 260 | 0.0 | 1.0 | 0.00 | 0.00 | 0.00 | 83 | 1012.6 |
| 20260509140802 | 74 | 263 | 1.0 | 2.0 | 0.00 | 0.00 | 0.00 | 83 | 1012.5 |
| 20260509140259 | 74 | 230 | 1.0 | 1.0 | 0.00 | 0.00 | 0.00 | 83 | 1012.6 |
| 20260509135758 | 75 | 271 | 1.0 | 2.0 | 0.00 | 0.00 | 0.00 | 82 | 1012.6 |
| 20260509135255 | 74 | 254 | 1.0 | 1.0 | 0.00 | 0.00 | 0.00 | 83 | 1012.6 |